Weather History for Dickinson, ND

Change the Weather History Date:

Saturday, May 17, 2014

  Actual Average Record
Temperature  
Mean Temperature 49 °F 54 °F  
Max Temperature 66 °F 66 °F 93 °F (1934)
Min Temperature 32 °F 41 °F 24 °F (2002)
Degree Days  
Heating Degree Days 16 12  
Month to date heating degree days 340 244  
Since 1 July heating degree days 8953 8306  
Cooling Degree Days 0 0  
Month to date cooling degree days 0 0  
Year to date cooling degree days 0 1  
Moisture  
Dew Point 37 °F    
Average Humidity 63    
Maximum Humidity 92    
Minimum Humidity 34    
Precipitation  
Precipitation 0.00 in 0.08 in 1.05 in (2013)
Month to date precipitation 1.07 1.19  
Year to date precipitation 2.93 3.98  
Sea Level Pressure  
Sea Level Pressure 29.98 in    
Wind  
Wind Speed 4 mph (SW)    
Max Wind Speed 14 mph    
Max Gust Speed 18 mph    
Visibility 10 miles    
Events      
T = Trace of Precipitation, MM = Missing Value Source: NWS Daily Summary

Daily Weather History Graph

Daily Weather History Graph

Search for Another Location

Airport:

Trip Planner

Search our weather history database for the weather conditions in past years. The results will help you decide how hot, cold, wet, or windy it might be!

Date:

Astronomy

May. 17, 2014 Rise Set
Actual Time 5:14 AM MDT 8:21 PM MDT
Civil Twilight 4:37 AM MDT 8:58 PM MDT
Nautical Twilight 3:51 AM MDT 9:45 PM MDT
Astronomical Twilight 2:53 AM MDT 10:43 PM MDT
Moon 11:22 PM MDT (5/17) 7:59 AM MDT (5/17)
Length of Visible Light 16h 20m
Length of Day
15h 07m
Waning Gibbous, 89% of the Moon is Illuminated
May 17
Waning Gibbous
May 21
Last Quarter
May 28
New
Jun 5
First Quarter
Jun 12
Full

Hourly Weather History & Observations

Time (MDT) Temp. Windchill Dew Point Humidity Pressure Visibility Wind Dir Wind Speed Gust Speed Precip Events Conditions
12:56 AM 36.0 °F 33.3 °F 33.1 °F 89% 30.06 in 10.0 mi SSW 3.5 mph - N/A   Clear
1:56 AM 39.9 °F - 36.0 °F 86% 30.05 in 10.0 mi Calm Calm - N/A   Clear
2:56 AM 35.1 °F 29.3 °F 32.0 °F 89% 30.06 in 10.0 mi South 6.9 mph - N/A   Clear
3:56 AM 37.0 °F - 33.1 °F 86% 30.04 in 10.0 mi Calm Calm - N/A   Clear
4:56 AM 33.1 °F - 28.9 °F 85% 30.04 in 10.0 mi Calm Calm - N/A   Clear
5:56 AM 33.1 °F 30.0 °F 30.9 °F 92% 30.05 in 10.0 mi SW 3.5 mph - N/A   Clear
7:56 AM 51.1 °F - 43.0 °F 74% 30.02 in 10.0 mi Variable 3.5 mph - N/A   Clear
8:56 AM 55.0 °F - 44.1 °F 67% 30.02 in 10.0 mi Variable 4.6 mph - N/A   Clear
9:56 AM 55.9 °F - 42.1 °F 60% 30.03 in 10.0 mi NNW 4.6 mph - N/A   Scattered Clouds
10:56 AM 59.0 °F - 39.9 °F 49% 30.02 in 10.0 mi Variable 3.5 mph - N/A   Partly Cloudy
11:56 AM 57.9 °F - 39.0 °F 49% 30.01 in 10.0 mi WSW 8.1 mph - N/A   Overcast
12:56 PM 60.1 °F - 37.9 °F 44% 30.00 in 10.0 mi Calm Calm - N/A   Mostly Cloudy
1:56 PM 61.0 °F - 37.9 °F 42% 29.97 in 10.0 mi Variable 4.6 mph - N/A   Scattered Clouds
2:56 PM 62.1 °F - 37.9 °F 41% 29.96 in 10.0 mi WSW 4.6 mph - N/A   Scattered Clouds
3:56 PM 64.0 °F - 36.0 °F 35% 29.94 in 10.0 mi SW 9.2 mph - N/A   Overcast
4:56 PM 64.9 °F - 37.0 °F 36% 29.94 in 10.0 mi NW 6.9 mph - N/A   Overcast
5:56 PM 63.0 °F - 36.0 °F 37% 29.94 in 10.0 mi Calm Calm - N/A   Mostly Cloudy
6:56 PM 63.0 °F - 36.0 °F 37% 29.91 in 10.0 mi West 6.9 mph - N/A   Scattered Clouds
7:56 PM 60.1 °F - 37.0 °F 42% 29.90 in 10.0 mi Calm Calm - N/A   Scattered Clouds
8:56 PM 57.9 °F - 37.0 °F 46% 29.89 in 10.0 mi NE 4.6 mph - N/A   Mostly Cloudy
10:56 PM 46.9 °F - 39.9 °F 77% 29.91 in 10.0 mi South 8.1 mph - N/A   Clear
11:56 PM 46.0 °F 42.5 °F 39.9 °F 79% 29.90 in 10.0 mi South 6.9 mph - N/A   Clear